| time (UTC) | temp F | wind direction | speed MPH | gust MPH | rain 1hr in | rain 24hr in | rain mn in | humidity % | barometer mb |
| 20260505140118 | 74 | 36 | 5.0 | 11.0 | 0.00 | 0.00 | 0.00 | 72 | 1014.6 |
| 20260505124556 | 73 | 62 | 5.0 | 10.0 | 0.00 | 0.00 | 0.00 | 73 | 1014.7 |
| 20260505123055 | 74 | 10 | 5.0 | 12.0 | 0.00 | 0.00 | 0.00 | 72 | 1014.7 |
| 20260505121550 | 74 | 31 | 5.0 | 8.0 | 0.00 | 0.00 | 0.00 | 74 | 1014.6 |
| 20260505120055 | 73 | 58 | 3.0 | 8.0 | 0.00 | 0.00 | 0.00 | 74 | 1014.8 |
| 20260505114535 | 73 | 20 | 7.0 | 11.0 | 0.00 | 0.00 | 0.00 | 74 | 1014.7 |
| 20260505113040 | 73 | 19 | 4.0 | 9.0 | 0.00 | 0.00 | 0.00 | 75 | 1014.5 |
| 20260505111541 | 69 | 355 | 5.0 | 9.0 | 0.00 | 0.00 | 0.00 | 78 | 1014.7 |
| 20260505101533 | 69 | 349 | 3.0 | 8.0 | 0.00 | 0.00 | 0.00 | 79 | 1014.5 |
| 20260505100024 | 69 | 147 | 0.0 | 3.0 | 0.00 | 0.00 | 0.00 | 80 | 1014.4 |
| 20260505094526 | 67 | 356 | 1.0 | 3.0 | 0.00 | 0.00 | 0.00 | 81 | 1014.4 |
| 20260505093023 | 66 | 321 | 2.0 | 5.0 | 0.00 | 0.00 | 0.00 | 82 | 1014.4 |
| 20260505091519 | 66 | 328 | 3.0 | 5.0 | 0.00 | 0.00 | 0.00 | 82 | 1014.0 |
| 20260505090021 | 66 | 31 | 4.0 | 8.0 | 0.00 | 0.00 | 0.00 | 83 | 1014.0 |
| 20260505084526 | 65 | 196 | 0.0 | 2.0 | 0.00 | 0.00 | 0.00 | 84 | 1013.9 |
| 20260505083018 | 65 | 299 | 0.0 | 3.0 | 0.00 | 0.00 | 0.00 | 83 | 1014.2 |
| 20260505081518 | 65 | 36 | 0.0 | 0.0 | 0.00 | 0.00 | 0.00 | 81 | 1013.8 |
| 20260505080026 | 64 | 126 | 0.0 | 2.0 | 0.00 | 0.00 | 0.00 | 81 | 1013.8 |
| 20260505074517 | 63 | 187 | 0.0 | 2.0 | 0.00 | 0.00 | 0.00 | 82 | 1013.9 |
| 20260505073015 | 62 | 203 | 0.0 | 2.0 | 0.00 | 0.00 | 0.00 | 82 | 1013.7 |
| 20260505071516 | 62 | 206 | 0.0 | 1.0 | 0.00 | 0.00 | 0.00 | 83 | 1013.8 |
| 20260505070022 | 62 | 206 | 1.0 | 2.0 | 0.00 | 0.00 | 0.00 | 81 | 1013.7 |
| 20260505064514 | 62 | 167 | 1.0 | 2.0 | 0.00 | 0.00 | 0.00 | 84 | 1013.5 |
| 20260505063013 | 62 | 195 | 1.0 | 4.0 | 0.00 | 0.00 | 0.00 | 83 | 1013.4 |
| 20260505061515 | 61 | 149 | 0.0 | 3.0 | 0.00 | 0.00 | 0.00 | 83 | 1013.5 |
| 20260505060012 | 61 | 198 | 1.0 | 3.0 | 0.00 | 0.00 | 0.00 | 84 | 1013.4 |
| 20260505054512 | 62 | 162 | 2.0 | 4.0 | 0.00 | 0.00 | 0.00 | 84 | 1013.3 |
| 20260505053014 | 61 | 203 | 1.0 | 3.0 | 0.00 | 0.00 | 0.00 | 84 | 1013.3 |
| 20260505051509 | 61 | 219 | 1.0 | 4.0 | 0.00 | 0.00 | 0.00 | 83 | 1013.4 |
| 20260505041502 | 61 | 196 | 2.0 | 4.0 | 0.00 | 0.00 | 0.00 | 84 | 1013.6 |
| 20260505040002 | 61 | 188 | 2.0 | 4.0 | 0.00 | 0.00 | 0.00 | 83 | 1013.6 |
| 20260505034611 | 61 | 228 | 1.0 | 3.0 | 0.00 | 0.00 | 0.00 | 84 | 1013.6 |
| 20260505033104 | 61 | 199 | 1.0 | 4.0 | 0.00 | 0.00 | 0.00 | 83 | 1013.6 |
| 20260505031557 | 61 | 175 | 3.0 | 7.0 | 0.00 | 0.00 | 0.00 | 83 | 1013.8 |
| 20260505030054 | 62 | 185 | 1.0 | 5.0 | 0.00 | 0.00 | 0.00 | 84 | 1014.1 |
| 20260505024550 | 65 | 221 | 0.0 | 3.0 | 0.00 | 0.00 | 0.00 | 81 | 1014.2 |
| 20260505023048 | 66 | 214 | 2.0 | 4.0 | 0.00 | 0.00 | 0.00 | 81 | 1014.3 |
| 20260505021547 | 66 | 214 | 0.0 | 0.0 | 0.00 | 0.00 | 0.00 | 81 | 1014.3 |
| 20260505020045 | 66 | 214 | 0.0 | 0.0 | 0.00 | 0.00 | 0.00 | 81 | 1014.5 |
| 20260505014545 | 66 | 214 | 1.0 | 3.0 | 0.00 | 0.00 | 0.00 | 81 | 1014.7 |
| 20260505013042 | 66 | 214 | 1.0 | 3.0 | 0.00 | 0.00 | 0.00 | 81 | 1014.5 |
| 20260505011544 | 67 | 214 | 1.0 | 4.0 | 0.00 | 0.00 | 0.00 | 81 | 1015.0 |
| 20260505010048 | 67 | 214 | 2.0 | 4.0 | 0.00 | 0.00 | 0.00 | 81 | 1015.2 |
| 20260505004536 | 67 | 214 | 3.0 | 6.0 | 0.00 | 0.00 | 0.00 | 81 | 1015.7 |
| 20260505003034 | 67 | 229 | 2.0 | 6.0 | 0.00 | 0.00 | 0.00 | 81 | 1015.7 |
| 20260505001543 | 67 | 231 | 3.0 | 5.0 | 0.00 | 0.00 | 0.00 | 81 | 1016.0 |
| 20260505000049 | 67 | 231 | 3.0 | 5.0 | 0.00 | 0.00 | 0.00 | 81 | 1015.8 |
| 20260504234540 | 68 | 231 | 3.0 | 6.0 | 0.00 | 0.00 | 0.00 | 81 | 1016.0 |
| 20260504233038 | 68 | 295 | 0.0 | 3.0 | 0.00 | 0.00 | 0.00 | 80 | 1016.2 |
| 20260504231538 | 68 | 295 | 0.0 | 0.0 | 0.00 | 0.00 | 0.00 | 80 | 1016.0 |
| 20260504230033 | 68 | 295 | 2.0 | 4.0 | 0.00 | 0.00 | 0.00 | 79 | 1016.4 |
| 20260504224536 | 68 | 296 | 0.0 | 0.0 | 0.00 | 0.00 | 0.00 | 79 | 1015.9 |
| 20260504223032 | 68 | 296 | 0.0 | 3.0 | 0.00 | 0.00 | 0.00 | 79 | 1015.6 |
| 20260504221531 | 68 | 296 | 0.0 | 2.0 | 0.00 | 0.00 | 0.00 | 78 | 1015.7 |
| 20260504220043 | 68 | 298 | 0.0 | 3.0 | 0.00 | 0.00 | 0.00 | 78 | 1015.7 |
| 20260504214535 | 68 | 319 | 0.0 | 4.0 | 0.00 | 0.00 | 0.00 | 78 | 1015.6 |
| 20260504213039 | 69 | 22 | 1.0 | 3.0 | 0.00 | 0.00 | 0.00 | 78 | 1015.6 |
| 20260504211536 | 69 | 22 | 1.0 | 3.0 | 0.00 | 0.00 | 0.00 | 78 | 1015.5 |
| 20260504210027 | 69 | 22 | 0.0 | 3.0 | 0.00 | 0.00 | 0.00 | 77 | 1015.4 |
| 20260504204536 | 69 | 22 | 2.0 | 3.0 | 0.00 | 0.00 | 0.00 | 77 | 1015.3 |
| 20260504203025 | 69 | 21 | 0.0 | 4.0 | 0.00 | 0.00 | 0.00 | 76 | 1015.1 |
| 20260504201526 | 70 | 21 | 1.0 | 3.0 | 0.00 | 0.00 | 0.00 | 76 | 1015.1 |
| 20260504200024 | 70 | 21 | 3.0 | 5.0 | 0.00 | 0.00 | 0.00 | 76 | 1015.2 |
| 20260504194524 | 71 | 21 | 0.0 | 2.0 | 0.00 | 0.00 | 0.00 | 76 | 1014.9 |
| 20260504193024 | 70 | 21 | 1.0 | 5.0 | 0.00 | 0.00 | 0.00 | 76 | 1014.9 |
| 20260504191526 | 71 | 22 | 2.0 | 5.0 | 0.00 | 0.00 | 0.00 | 74 | 1014.8 |
| 20260504190027 | 71 | 41 | 3.0 | 8.0 | 0.00 | 0.00 | 0.00 | 74 | 1014.6 |
| 20260504184522 | 72 | 25 | 3.0 | 6.0 | 0.00 | 0.00 | 0.00 | 74 | 1014.4 |
| 20260504183021 | 72 | 4 | 6.0 | 9.0 | 0.00 | 0.00 | 0.00 | 72 | 1014.0 |
| 20260504181521 | 73 | 17 | 4.0 | 8.0 | 0.00 | 0.00 | 0.00 | 72 | 1013.5 |
| 20260504180007 | 72 | 331 | 4.0 | 10.0 | 0.00 | 0.00 | 0.00 | 72 | 1013.9 |
| 20260504174506 | 72 | 329 | 4.0 | 9.0 | 0.00 | 0.00 | 0.00 | 74 | 1014.2 |
| 20260504173004 | 72 | 41 | 5.0 | 12.0 | 0.00 | 0.00 | 0.00 | 73 | 1014.4 |
| 20260504171506 | 72 | 355 | 5.0 | 10.0 | 0.00 | 0.00 | 0.00 | 73 | 1014.2 |